TimeEST,TemperatureF,Dew PointF,Humidity,Sea Level PressureIn,VisibilityMPH,Wind Direction,Wind SpeedMPH,Gust SpeedMPH,PrecipitationIn,Events,Conditions,WindDirDegrees,DateUTC
12:17 AM,33.4,24.3,69,30.22,10.0,South,4.6,-,N/A,,Clear,180,2012-12-06 05:17:00
12:37 AM,34.0,24.4,68,30.23,10.0,South,4.6,-,N/A,,Clear,170,2012-12-06 05:37:00
12:57 AM,34.0,24.3,68,30.22,10.0,South,8.1,16.1,N/A,,Clear,170,2012-12-06 05:57:00
1:17 AM,34.3,24.4,67,30.22,10.0,South,6.9,19.6,N/A,,Mostly Cloudy,180,2012-12-06 06:17:00
1:37 AM,34.7,24.6,67,30.21,10.0,South,8.1,17.3,N/A,,Scattered Clouds,180,2012-12-06 06:37:00
1:57 AM,34.7,24.6,67,30.20,10.0,South,10.4,-,N/A,,Clear,190,2012-12-06 06:57:00
2:17 AM,34.7,24.8,67,30.20,10.0,South,6.9,-,N/A,,Clear,170,2012-12-06 07:17:00
2:37 AM,34.7,24.8,67,30.20,10.0,South,9.2,-,N/A,,Clear,180,2012-12-06 07:37:00
2:57 AM,34.7,24.8,67,30.20,10.0,South,6.9,-,N/A,,Clear,180,2012-12-06 07:57:00
3:17 AM,34.7,25.2,68,30.19,10.0,South,5.8,-,N/A,,Clear,190,2012-12-06 08:17:00
3:37 AM,34.7,25.3,69,30.18,10.0,South,5.8,16.1,N/A,,Scattered Clouds,170,2012-12-06 08:37:00
3:56 AM,34.5,25.5,70,30.17,10.0,South,8.1,-,N/A,,Scattered Clouds,170,2012-12-06 08:56:00
4:17 AM,34.7,25.7,70,30.15,10.0,South,5.8,-,N/A,,Clear,180,2012-12-06 09:17:00
4:37 AM,34.9,25.7,69,30.15,10.0,South,5.8,16.1,N/A,,Scattered Clouds,190,2012-12-06 09:37:00
4:56 AM,34.9,25.7,69,30.14,10.0,South,8.1,-,N/A,,Mostly Cloudy,180,2012-12-06 09:56:00
5:17 AM,35.1,25.7,69,30.14,10.0,South,6.9,-,N/A,,Mostly Cloudy,180,2012-12-06 10:17:00
5:37 AM,34.9,25.7,69,30.13,10.0,South,9.2,-,N/A,,Overcast,180,2012-12-06 10:37:00
5:57 AM,35.2,26.1,69,30.13,10.0,South,9.2,-,N/A,,Overcast,170,2012-12-06 10:57:00
6:17 AM,35.1,26.1,70,30.12,10.0,South,8.1,-,N/A,,Mostly Cloudy,180,2012-12-06 11:17:00
6:37 AM,35.2,25.7,68,30.11,10.0,South,9.2,-,N/A,,Mostly Cloudy,180,2012-12-06 11:37:00
6:57 AM,35.4,26.1,69,30.10,10.0,South,5.8,-,N/A,,Mostly Cloudy,170,2012-12-06 11:57:00
7:17 AM,35.6,26.4,69,30.09,10.0,South,9.2,-,N/A,,Mostly Cloudy,190,2012-12-06 12:17:00
7:37 AM,35.6,26.6,70,30.08,10.0,SSE,9.2,16.1,N/A,,Overcast,150,2012-12-06 12:37:00
7:57 AM,35.2,26.6,71,30.07,10.0,SSE,6.9,-,N/A,,Overcast,160,2012-12-06 12:57:00
8:17 AM,35.4,26.6,70,30.06,10.0,South,8.1,16.1,N/A,,Overcast,190,2012-12-06 13:17:00
8:37 AM,35.2,26.6,71,30.05,10.0,South,9.2,17.3,N/A,,Mostly Cloudy,190,2012-12-06 13:37:00
8:57 AM,35.6,26.6,70,30.04,10.0,South,5.8,-,N/A,,Overcast,170,2012-12-06 13:57:00
9:17 AM,36.5,27.3,69,30.04,10.0,SSW,6.9,16.1,N/A,,Mostly Cloudy,210,2012-12-06 14:17:00
9:36 AM,36.5,25.3,64,30.03,10.0,South,10.4,19.6,N/A,,Overcast,180,2012-12-06 14:36:00
9:57 AM,36.5,25.2,64,30.03,10.0,South,12.7,19.6,N/A,,Overcast,190,2012-12-06 14:57:00
10:17 AM,36.9,25.3,63,30.01,10.0,South,12.7,19.6,N/A,,Overcast,180,2012-12-06 15:17:00
10:36 AM,36.5,26.4,67,29.98,10.0,SE,12.7,24.2,N/A,,Drizzle,140,2012-12-06 15:36:00
10:57 AM,36.5,25.9,65,30.00,10.0,South,9.2,-,N/A,Rain,Light Rain,180,2012-12-06 15:57:00
11:17 AM,35.6,28.2,75,29.99,10.0,South,8.1,-,N/A,Rain,Rain,170,2012-12-06 16:17:00
11:37 AM,36.5,28.2,72,29.97,10.0,SSE,10.4,17.3,N/A,,Light Drizzle,160,2012-12-06 16:37:00
11:57 AM,36.9,26.6,66,29.96,10.0,South,16.1,21.9,N/A,,Overcast,180,2012-12-06 16:57:00
12:17 PM,37.6,26.6,65,29.94,10.0,South,10.4,16.1,N/A,,Overcast,170,2012-12-06 17:17:00
12:37 PM,37.6,27.5,67,29.93,10.0,SSE,12.7,20.7,N/A,,Overcast,160,2012-12-06 17:37:00
12:57 PM,36.5,29.1,75,29.92,4.0,SSE,11.5,17.3,N/A,Snow,Light Snow,160,2012-12-06 17:57:00
1:17 PM,36.5,31.3,81,29.88,5.0,SSE,9.2,18.4,N/A,Rain,Rain,150,2012-12-06 18:17:00
1:37 PM,36.5,32.0,84,29.86,10.0,SSE,15.0,20.7,N/A,,Light Drizzle,150,2012-12-06 18:37:00
1:57 PM,37.4,32.9,84,29.87,10.0,South,11.5,19.6,N/A,,Overcast,190,2012-12-06 18:57:00
2:17 PM,37.8,32.4,81,29.87,10.0,South,9.2,19.6,N/A,,Overcast,180,2012-12-06 19:17:00
2:37 PM,38.3,32.0,78,29.86,10.0,South,9.2,20.7,N/A,Rain,Rain,170,2012-12-06 19:37:00
2:57 PM,37.4,32.0,81,29.86,4.0,South,12.7,20.7,N/A,Rain,Light Rain,170,2012-12-06 19:57:00
3:17 PM,37.0,32.0,82,29.85,10.0,South,10.4,19.6,N/A,,Light Drizzle,180,2012-12-06 20:17:00
3:37 PM,37.4,32.0,81,29.84,10.0,SSE,9.2,17.3,N/A,,Overcast,160,2012-12-06 20:37:00
3:57 PM,38.3,31.1,75,29.83,10.0,South,8.1,17.3,N/A,,Overcast,180,2012-12-06 20:57:00
4:17 PM,39.2,30.4,71,29.83,10.0,South,11.5,18.4,N/A,,Overcast,190,2012-12-06 21:17:00
4:37 PM,39.2,30.2,70,29.84,10.0,SSW,11.5,23.0,N/A,,Overcast,200,2012-12-06 21:37:00
4:57 PM,39.7,30.0,68,29.84,10.0,South,12.7,20.7,N/A,,Overcast,190,2012-12-06 21:57:00
5:17 PM,40.1,30.2,68,29.83,10.0,South,11.5,19.6,N/A,,Overcast,190,2012-12-06 22:17:00
5:37 PM,40.3,30.2,67,29.82,10.0,SSW,10.4,17.3,N/A,,Overcast,200,2012-12-06 22:37:00
5:57 PM,40.8,31.3,69,29.82,10.0,South,9.2,17.3,N/A,,Overcast,180,2012-12-06 22:57:00
6:17 PM,41.4,32.2,70,29.82,10.0,SSW,10.4,19.6,N/A,,Overcast,200,2012-12-06 23:17:00
6:37 PM,41.5,32.9,71,29.82,10.0,SSW,15.0,24.2,N/A,,Overcast,200,2012-12-06 23:37:00
6:57 PM,41.9,33.8,73,29.81,10.0,South,11.5,-,N/A,,Overcast,190,2012-12-06 23:57:00
7:17 PM,41.9,34.0,73,29.81,10.0,SSW,11.5,20.7,N/A,,Overcast,200,2012-12-07 00:17:00
7:37 PM,42.1,34.7,75,29.81,10.0,SSW,12.7,23.0,N/A,,Overcast,200,2012-12-07 00:37:00
7:56 PM,42.3,35.1,76,29.81,10.0,SSW,15.0,21.9,N/A,,Overcast,200,2012-12-07 00:56:00
8:17 PM,42.3,35.6,77,29.81,10.0,SW,13.8,21.9,N/A,,Overcast,220,2012-12-07 01:17:00
8:37 PM,42.4,36.1,78,29.81,10.0,SW,11.5,20.7,N/A,,Overcast,220,2012-12-07 01:37:00
8:57 PM,43.2,37.0,79,29.80,10.0,SW,17.3,23.0,N/A,,Light Drizzle,230,2012-12-07 01:57:00
9:37 PM,43.7,35.6,73,29.80,10.0,WSW,16.1,25.3,N/A,,Overcast,240,2012-12-07 02:37:00
9:57 PM,43.7,36.0,74,29.80,10.0,WSW,16.1,-,N/A,,Overcast,250,2012-12-07 02:57:00
10:17 PM,43.7,34.7,71,29.80,10.0,WSW,13.8,19.6,N/A,,Overcast,240,2012-12-07 03:17:00
10:37 PM,43.7,35.6,73,29.80,10.0,SW,11.5,16.1,N/A,,Overcast,230,2012-12-07 03:37:00
10:57 PM,43.7,36.1,75,29.80,10.0,WSW,11.5,16.1,N/A,,Overcast,240,2012-12-07 03:57:00
11:17 PM,44.1,36.3,74,29.80,10.0,WSW,13.8,18.4,N/A,,Overcast,240,2012-12-07 04:17:00
11:37 PM,44.2,36.7,75,29.80,10.0,WSW,12.7,-,N/A,,Overcast,240,2012-12-07 04:37:00
11:57 PM,44.2,36.7,75,29.81,10.0,WSW,16.1,21.9,N/A,,Overcast,250,2012-12-07 04:57:00